Temp
86 89 89 90 90 91 92 90 90 91 90 91 93 92 89 85 80 92 94 81 80 80 82 83 83 83 83 83 83 83 82 82 82 82 82 82 82 81 81 81 81 81 81
88 89 90 90 91 91 92 91 90 88 86 93 92 91 88 85 82 77 82 91 81 80 81 81 82 83 83 83 83 83 82 82 82 82 82 81 81 81 81 81 81 81 81
88 83 83 85 91 90 87 89 89 89 88 85 89 91 83 79 80 80 79 80 84 82 82 82 81 82 83 83 83 82 82 81 81 82 81 81 81 81 81 80 81 81 81
83 81 81 82 89 90 88 87 85 87 88 88 88 88 84 77 85 76 77 76 79 85 83 82 81 81 82 83 83 83 81 81 81 81 81 81 81 81 80 80 80 80 79
76 77 80 82 84 87 82 84 87 83 81 82 83 85 79 76 78 79 83 79 80 83 93 82 80 81 82 83 82 82 81 81 81 81 81 81 81 80 80 80 80 80 80
73 75 82 79 83 84 84 81 84 82 81 84 81 84 83 76 75 76 81 84 80 86 93 91 91 88 80 82 81 81 78 81 81 81 81 80 80 80 80 79 79 79 79
74 74 74 83 84 85 85 81 78 77 78 81 78 81 81 83 73 74 86 78 82 82 90 89 92 94 91 80 81 81 82 82 82 82 81 80 80 80 79 79 78 79 79
81 81 82 85 84 81 83 83 80 77 75 75 71 74 73 78 78 75 83 75 78 79 77 87 87 91 92 87 88 80 80 82 82 82 82 80 80 79 79 78 78 78 78
85 82 82 82 83 82 83 80 79 78 78 76 74 71 69 70 68 77 77 80 78 85 82 76 80 87 85 85 87 85 80 79 81 82 82 81 80 80 79 79 78 78 78
85 83 83 83 83 83 80 81 83 80 77 75 74 75 76 74 66 67 73 78 81 82 81 82 87 89 84 81 89 80 79 78 78 80 81 81 81 80 80 80 79 78 78
83 82 81 81 83 86 83 81 82 79 79 77 76 71 74 73 69 66 65 70 71 74 80 81 83 84 87 76 91 86 78 77 77 78 78 79 80 81 81 81 80 79 78
81 80 80 82 82 83 84 82 81 80 79 77 75 76 69 72 73 68 69 73 68 70 73 75 90 87 82 81 84 78 78 77 77 76 77 77 78 79 80 81 81 81 80
81 78 79 82 82 77 82 82 82 80 79 76 75 76 76 77 77 70 68 69 67 70 72 73 82 87 87 89 82 79 78 76 76 75 74 74 75 76 78 79 79 80 82
82 81 81 81 82 83 82 83 81 80 82 78 80 78 78 79 83 73 70 69 66 70 73 74 75 75 89 88 80 78 78 74 74 73 73 73 73 74 75 76 77 77 78
86 81 80 79 80 80 81 82 82 82 81 82 82 80 80 78 79 78 72 72 69 64 69 71 69 76 78 86 79 89 84 75 73 73 73 72 72 72 73 73 73 74 75
82 82 81 81 80 80 79 80 82 80 80 82 82 79 77 77 77 77 73 71 71 70 67 69 71 75 86 88 83 87 89 78 75 73 72 71 71 72 73 72 72 72 73
82 80 81 82 82 81 79 78 79 80 79 79 79 76 75 75 73 76 81 75 69 69 74 73 73 73 79 83 86 87 88 89 89 74 73 71 70 70 71 71 71 71 71
82 78 79 80 80 77 78 78 79 80 77 77 78 76 74 75 67 64 63 65 67 68 66 67 70 71 72 75 76 77 82 88 89 78 73 71 70 70 69 69 68 67 67
80 81 81 80 79 80 79 77 77 78 78 77 76 75 75 73 71 67 58 56 57 59 59 62 63 69 71 70 74 74 70 69 75 75 71 71 71 70 69 68 67 66 63
80 80 80 78 78 79 79 78 78 77 76 75 75 74 73 71 70 70 71 67 60 58 57 55 56 58 60 67 72 74 71 78 80 86 79 76 75 75 70 68 68 68 66
77 77 77 77 79 81 80 76 76 75 74 74 74 74 72 68 65 65 72 69 68 71 73 70 62 64 59 62 63 69 74 77 79 80 81 84 85 86 85 70 74 71 68
77 77 76 76 76 79 66 68 74 75 73 72 72 73 73 70 68 65 64 64 64 65 65 69 70 71 68 70 69 67 71 71 70 82 78 80 84 82 84 86 76 71 68
75 74 74 75 74 73 65 65 68 77 75 73 72 73 75 76 70 70 68 67 67 65 64 65 64 66 66 68 68 66 65 65 66 74 75 73 79 78 82 86 71 68 66
73 73 73 73 74 72 64 64 66 75 75 73 73 73 71 70 67 65 67 68 69 70 71 71 68 67 68 68 67 68 66 65 66 69 72 66 75 76 80 83 71 68 65
73 73 73 72 72 72 62 63 64 74 75 72 73 71 70 69 58 59 64 65 66 68 69 63 62 61 61 60 62 65 65 67 68 71 75 73 75 75 78 79 81 69 65
72 78 74 73 61 72 58 61 64 76 74 74 73 73 63 65 58 57 62 64 63 66 67 67 68 68 64 68 62 63 64 63 67 68 74 70 72 73 71 79 81 82 82
MSLP
1016.63 1016.39 1016.42 1016.42 1016.24 1016.11 1015.94 1015.90 1015.88 1015.75 1015.80 1015.96 1015.72 1015.66 1016.29 1016.67 1017.11 1016.36 1015.84 1016.29 1017.09 1017.59 1017.68 1017.79 1017.95 1017.93 1018.10 1018.24 1018.38 1018.69 1018.96 1019.18 1019.46 1019.64 1019.74 1019.82 1020.14 1020.23 1020.42 1020.52 1020.57 1020.77 1020.90
1016.21 1016.14 1015.90 1015.84 1015.68 1015.68 1015.57 1015.46 1015.40 1015.80 1016.12 1015.09 1015.05 1015.35 1015.95 1016.25 1016.63 1016.93 1016.72 1015.63 1016.16 1016.75 1017.15 1017.33 1017.23 1017.39 1017.66 1017.81 1017.91 1018.10 1018.45 1018.79 1019.12 1019.26 1019.47 1019.61 1019.75 1019.98 1020.20 1020.23 1020.36 1020.60 1020.75
1015.93 1016.28 1016.25 1016.27 1015.39 1015.50 1015.80 1015.50 1015.26 1015.24 1015.45 1015.74 1015.21 1014.92 1015.79 1016.13 1016.49 1016.51 1016.44 1016.18 1015.93 1015.95 1016.14 1016.62 1016.91 1016.93 1017.10 1017.26 1017.38 1017.77 1018.13 1018.53 1018.83 1018.99 1019.05 1019.29 1019.51 1019.67 1019.86 1019.94 1020.01 1020.17 1020.40
1016.00 1016.23 1016.18 1016.04 1015.06 1015.10 1015.36 1015.20 1015.33 1014.88 1014.82 1014.96 1014.79 1014.71 1015.13 1016.01 1015.54 1016.04 1016.06 1016.06 1016.03 1015.31 1015.06 1015.48 1016.09 1016.24 1016.41 1016.60 1016.78 1017.08 1017.59 1018.10 1018.20 1018.45 1018.63 1018.93 1019.09 1019.32 1019.54 1019.70 1019.77 1019.88 1020.08
1015.96 1016.14 1015.80 1015.56 1015.35 1014.95 1015.17 1015.09 1014.94 1015.29 1014.99 1014.84 1014.78 1014.63 1014.97 1015.04 1015.58 1015.34 1015.01 1015.26 1015.31 1015.10 1013.94 1014.40 1015.05 1015.51 1015.78 1016.02 1016.27 1016.70 1017.22 1017.41 1017.54 1017.73 1018.02 1018.36 1018.58 1018.81 1019.07 1019.21 1019.38 1019.48 1019.65
1015.05 1015.67 1014.96 1015.10 1014.98 1014.69 1014.73 1014.91 1014.56 1014.65 1014.80 1014.09 1014.37 1014.07 1014.20 1014.62 1014.72 1014.79 1014.46 1014.26 1014.55 1014.07 1013.33 1013.49 1013.91 1014.53 1015.16 1015.36 1015.68 1016.19 1016.62 1016.92 1017.04 1017.09 1017.38 1017.72 1017.96 1018.26 1018.55 1018.67 1018.82 1019.20 1019.35
1014.92 1014.82 1014.84 1014.31 1014.10 1014.23 1014.18 1014.52 1014.76 1014.85 1014.59 1014.30 1014.33 1013.32 1013.40 1013.47 1014.24 1014.10 1013.73 1013.85 1013.99 1013.82 1013.02 1012.71 1013.26 1013.16 1013.66 1014.73 1015.08 1015.63 1015.89 1016.12 1016.31 1016.50 1016.68 1017.01 1017.34 1017.62 1017.89 1018.11 1018.27 1018.56 1018.83
1013.93 1014.11 1014.01 1013.68 1013.68 1013.94 1013.85 1013.91 1014.09 1014.22 1014.17 1014.09 1014.28 1014.02 1013.28 1012.70 1013.31 1013.54 1013.00 1013.50 1013.47 1013.65 1013.72 1013.29 1013.10 1012.90 1013.15 1013.31 1013.99 1014.64 1014.95 1015.34 1015.67 1015.81 1016.03 1016.37 1016.63 1016.98 1017.23 1017.52 1017.67 1018.01 1018.24
1012.95 1013.33 1013.27 1013.42 1013.33 1013.44 1013.41 1013.72 1013.75 1013.73 1013.59 1013.80 1014.21 1014.42 1013.81 1013.18 1013.36 1012.74 1012.98 1012.84 1012.88 1012.70 1013.25 1013.50 1013.37 1013.00 1013.39 1013.51 1013.61 1013.94 1014.35 1014.67 1014.96 1015.06 1015.31 1015.68 1016.07 1016.34 1016.62 1017.00 1017.18 1017.37 1017.62
1012.13 1012.75 1012.76 1012.77 1012.98 1013.05 1013.09 1013.22 1013.26 1013.41 1013.54 1013.53 1013.93 1013.73 1013.78 1013.77 1013.77 1013.25 1012.79 1012.52 1012.48 1012.25 1012.45 1012.60 1012.38 1012.32 1013.13 1013.13 1012.68 1013.37 1014.01 1014.38 1014.49 1014.73 1014.94 1015.23 1015.51 1015.75 1016.04 1016.25 1016.51 1016.73 1016.89
1012.14 1012.18 1012.60 1012.65 1012.61 1012.51 1012.55 1012.72 1012.71 1012.89 1013.13 1013.11 1013.21 1013.48 1013.29 1013.61 1013.95 1013.91 1013.18 1013.02 1012.96 1012.78 1012.36 1012.06 1012.26 1012.22 1012.52 1013.17 1012.28 1012.74 1013.78 1014.18 1014.35 1014.68 1014.88 1015.04 1015.30 1015.33 1015.42 1015.60 1015.80 1016.01 1016.22
1012.62 1012.15 1012.21 1012.17 1012.45 1012.54 1012.33 1012.38 1012.51 1012.61 1012.61 1012.79 1013.07 1013.00 1013.16 1013.13 1013.00 1013.68 1013.33 1012.96 1013.12 1012.78 1012.49 1012.23 1011.32 1011.89 1012.43 1012.65 1012.66 1013.15 1013.54 1013.89 1014.15 1014.44 1014.78 1014.82 1014.80 1015.01 1015.15 1015.12 1015.07 1015.10 1015.42
1012.16 1012.18 1011.87 1011.85 1011.97 1012.40 1012.28 1012.38 1012.10 1012.36 1012.40 1012.66 1012.77 1012.67 1012.79 1012.63 1012.72 1012.90 1013.13 1013.11 1013.04 1012.57 1012.34 1012.38 1011.85 1011.22 1011.45 1011.89 1012.61 1012.93 1013.27 1013.71 1014.03 1014.25 1014.39 1014.47 1014.52 1014.50 1014.66 1014.79 1014.78 1014.65 1014.54
1012.01 1011.86 1011.82 1011.77 1011.65 1011.83 1012.03 1011.89 1012.05 1012.18 1011.99 1012.33 1012.12 1012.37 1012.38 1012.22 1012.01 1012.61 1012.78 1012.92 1012.73 1012.63 1012.50 1012.29 1012.11 1011.97 1011.21 1011.55 1012.61 1013.00 1013.21 1013.58 1013.89 1014.04 1014.23 1014.31 1014.36 1014.14 1014.10 1014.19 1014.24 1014.21 1014.11
1011.88 1012.09 1012.22 1012.27 1012.20 1012.17 1012.18 1011.91 1011.81 1011.87 1012.06 1012.01 1012.01 1012.12 1012.09 1012.04 1012.15 1012.32 1012.54 1012.55 1012.64 1012.58 1012.55 1012.57 1012.61 1012.56 1012.17 1011.98 1012.44 1012.15 1012.97 1013.52 1013.55 1013.78 1013.91 1013.93 1013.89 1013.79 1013.80 1013.70 1013.61 1013.54 1013.49
1012.37 1012.33 1012.39 1012.36 1012.60 1012.69 1012.57 1012.35 1012.17 1012.37 1012.22 1012.04 1011.95 1012.09 1012.22 1012.40 1012.28 1012.66 1012.68 1012.47 1012.42 1012.57 1012.73 1012.95 1012.79 1012.63 1011.88 1011.89 1012.48 1012.24 1012.20 1013.04 1013.13 1013.33 1013.49 1013.52 1013.47 1013.43 1013.37 1013.35 1013.20 1013.08 1012.95
1012.63 1012.85 1012.80 1012.78 1012.65 1012.66 1012.89 1012.85 1012.78 1012.64 1012.45 1012.35 1012.47 1012.72 1012.73 1012.78 1012.65 1012.70 1012.63 1013.04 1013.08 1013.00 1012.77 1013.03 1013.06 1012.89 1012.60 1012.17 1011.79 1011.90 1011.99 1011.79 1011.71 1012.31 1012.59 1012.85 1013.05 1013.10 1012.95 1012.77 1012.66 1012.54 1012.39
1012.95 1013.32 1013.32 1013.31 1013.18 1013.38 1013.31 1013.00 1012.98 1012.99 1013.07 1012.91 1012.85 1013.08 1013.33 1013.36 1013.97 1014.25 1014.22 1014.21 1014.25 1014.12 1014.08 1013.44 1013.18 1013.05 1012.98 1012.84 1012.76 1012.76 1012.38 1011.72 1011.34 1011.74 1012.10 1012.28 1012.36 1012.33 1012.22 1012.18 1012.12 1011.95 1011.77
1013.50 1013.43 1013.44 1013.49 1013.48 1013.54 1013.60 1013.67 1013.73 1013.60 1013.46 1013.60 1013.72 1013.69 1013.70 1013.79 1014.37 1014.90 1015.33 1015.18 1015.30 1015.30 1014.91 1014.66 1014.25 1013.66 1013.32 1013.28 1012.83 1012.94 1012.89 1012.77 1012.31 1012.03 1011.90 1011.49 1011.39 1011.60 1011.68 1011.63 1011.56 1011.32 1011.11
1013.37 1013.64 1013.77 1013.86 1014.06 1014.09 1014.09 1014.11 1014.02 1014.03 1014.01 1014.25 1014.44 1014.47 1014.64 1014.68 1014.79 1014.82 1014.94 1015.27 1015.57 1015.43 1015.25 1015.24 1015.06 1014.63 1014.46 1013.53 1012.88 1012.38 1012.17 1011.68 1011.35 1010.91 1011.19 1011.10 1010.81 1010.71 1010.91 1010.91 1010.88 1010.68 1010.53
1014.02 1014.07 1014.15 1014.32 1014.27 1014.06 1014.27 1014.42 1014.41 1014.55 1014.47 1014.55 1014.76 1014.73 1015.20 1015.60 1015.81 1015.79 1014.99 1015.19 1015.07 1014.71 1014.38 1014.13 1014.45 1014.14 1014.29 1014.07 1013.55 1012.78 1012.07 1011.51 1010.94 1010.93 1010.56 1009.91 1009.49 1009.18 1008.99 1009.89 1009.67 1009.65 1009.84
1014.08 1014.29 1014.49 1014.38 1014.45 1014.52 1015.41 1015.11 1014.80 1014.85 1014.77 1014.88 1014.93 1015.17 1015.35 1015.56 1015.68 1015.86 1015.91 1015.86 1015.78 1015.32 1015.02 1014.37 1013.74 1013.29 1013.39 1013.17 1013.08 1013.01 1012.13 1011.49 1010.55 1010.33 1009.98 1009.48 1009.24 1008.96 1008.83 1008.57 1008.50 1008.82 1009.33
1014.50 1014.46 1014.55 1014.58 1014.81 1015.34 1015.75 1015.70 1015.44 1014.93 1014.87 1015.20 1015.29 1015.24 1014.97 1015.11 1015.65 1015.79 1015.61 1015.44 1015.06 1015.09 1015.09 1014.87 1014.23 1013.72 1013.42 1013.19 1013.05 1012.87 1012.50 1012.07 1011.37 1010.78 1010.44 1009.58 1009.39 1008.80 1008.54 1007.95 1008.17 1008.41 1008.71
1014.51 1014.61 1014.88 1014.76 1014.84 1015.49 1016.05 1016.07 1015.85 1015.29 1015.26 1015.43 1015.47 1015.48 1015.53 1015.59 1016.01 1016.27 1015.84 1015.19 1014.79 1014.47 1014.12 1014.07 1013.94 1013.78 1013.71 1013.48 1013.27 1012.72 1012.44 1012.11 1011.74 1011.02 1010.47 1009.44 1009.10 1008.39 1007.97 1007.45 1007.49 1007.84 1008.07
1014.46 1014.20 1014.68 1014.71 1014.47 1014.83 1015.67 1015.87 1016.00 1015.29 1015.07 1015.32 1015.46 1015.61 1015.74 1015.68 1016.38 1016.46 1015.81 1015.02 1014.53 1013.91 1013.32 1013.56 1013.69 1013.65 1013.52 1013.46 1013.49 1012.97 1011.87 1010.90 1009.76 1009.16 1009.12 1008.52 1008.21 1007.71 1007.37 1006.94 1006.70 1006.81 1007.20
1014.64 1014.28 1014.69 1014.71 1015.18 1014.83 1015.35 1015.59 1015.86 1015.01 1014.64 1014.63 1014.75 1014.82 1015.39 1015.66 1016.10 1016.32 1015.88 1014.94 1014.11 1013.40 1013.27 1013.06 1012.77 1012.29 1012.08 1011.60 1012.01 1012.22 1011.65 1010.86 1009.87 1008.84 1008.39 1008.60 1008.07 1007.61 1006.80 1005.97 1005.73 1005.77 1005.77
Wind_Speed
6 6 6 7 6 6 6 6 7 8 8 10 10 9 8 8 6 8 9 18 15 16 17 18 19 17 17 16 17 17 16 17 16 15 13 13 12 11 10 11 9 10 9
7 8 7 7 7 6 6 6 6 4 9 10 9 9 8 5 4 5 6 10 17 18 18 19 20 19 19 16 19 18 17 16 17 16 14 13 12 12 12 12 11 11 12
9 9 6 7 8 6 7 8 8 8 8 8 12 11 5 1 5 6 7 7 8 17 19 20 20 20 19 19 18 18 16 16 15 16 15 15 14 13 13 14 13 12 11
9 8 8 8 10 7 6 7 7 7 7 10 10 9 4 6 11 7 6 6 6 10 16 18 18 19 20 20 19 17 15 16 17 17 17 16 16 15 14 14 14 13 13
4 7 8 8 9 9 6 9 7 9 8 8 9 10 6 3 7 6 11 8 9 11 10 17 17 17 20 21 19 16 13 17 18 19 19 17 17 16 14 14 14 14 13
8 9 8 8 8 9 8 9 10 7 10 9 8 9 8 6 6 6 10 13 7 15 12 13 9 11 18 19 17 14 16 21 19 18 19 19 18 17 17 16 15 15 14
9 10 6 10 10 9 10 9 8 9 9 9 7 8 6 10 7 7 12 4 12 11 12 6 9 7 10 18 16 17 21 20 18 17 18 18 19 19 18 17 16 16 16
11 10 10 9 8 7 9 10 9 7 5 4 3 6 6 4 5 8 8 6 11 6 6 11 11 9 10 8 12 18 18 18 17 16 17 18 19 20 19 18 17 17 17
9 9 9 8 9 7 8 7 8 9 7 3 3 3 4 3 2 2 8 7 11 10 10 6 10 8 9 6 8 11 12 9 10 12 13 16 17 18 19 19 18 18 18
6 6 6 8 8 7 9 7 7 7 6 8 3 6 8 5 2 3 3 4 4 7 10 9 10 12 10 6 10 5 9 5 2 4 8 10 16 18 18 18 18 19 19
5 5 2 4 7 8 8 9 9 9 8 8 6 2 5 5 4 4 3 1 3 4 4 8 8 7 10 4 7 6 12 6 5 4 5 8 8 9 14 18 19 19 20
2 5 2 4 5 8 9 7 8 8 9 6 5 7 4 5 3 4 7 5 2 3 3 5 5 6 8 4 7 10 8 8 8 7 7 8 11 12 13 13 15 18 21
2 2 4 5 5 5 7 8 7 7 7 5 7 5 6 6 5 3 3 3 3 3 2 5 3 2 4 5 3 3 7 6 7 7 7 8 10 13 13 13 13 15 17
3 6 7 7 5 5 6 5 3 4 3 4 7 6 6 6 5 4 3 3 2 3 2 2 1 5 2 5 7 8 6 6 5 4 6 7 9 10 12 13 13 13 14
2 4 5 6 5 4 3 1 2 4 4 3 3 4 5 4 4 4 3 5 4 3 4 2 3 2 2 3 3 5 4 7 5 6 6 6 6 6 10 13 14 13 12
1 4 4 4 4 4 4 3 2 3 4 5 4 5 3 3 2 2 2 4 3 2 2 2 2 4 3 4 7 5 3 5 12 9 5 5 6 7 8 10 12 14 15
5 4 4 5 5 5 4 4 4 3 4 4 4 7 8 7 5 4 4 4 5 5 2 4 3 0 5 6 3 4 5 7 6 13 9 6 7 9 10 10 11 13 14
6 4 4 4 5 5 4 4 5 6 5 6 7 6 8 7 9 9 7 10 8 8 4 1 2 2 4 3 5 7 7 10 10 8 9 7 10 12 11 10 9 10 13
4 4 5 5 5 5 4 5 5 5 6 7 7 8 9 7 8 7 6 5 5 5 5 5 4 3 1 2 3 6 5 5 6 13 12 16 14 12 11 10 10 9 9
5 5 5 5 5 5 5 5 5 6 6 7 7 8 8 8 7 5 6 5 3 2 2 1 2 2 3 6 7 7 7 7 7 8 10 13 13 12 11 12 12 11 9
5 4 4 4 2 2 5 4 5 5 5 6 6 6 9 10 11 11 8 7 7 7 4 3 5 4 3 4 6 7 10 9 9 8 11 10 10 10 11 15 15 15 9
4 4 4 5 5 6 7 8 5 5 6 5 4 4 5 4 6 5 4 5 5 6 7 7 8 9 10 8 6 8 9 10 11 9 9 9 8 9 10 10 8 6 8
4 4 4 4 5 6 5 5 6 5 4 4 3 3 5 7 4 9 8 9 9 7 8 8 10 10 11 10 10 10 10 10 10 10 11 12 10 12 11 11 9 8 7
3 4 4 4 4 6 3 2 4 2 1 1 2 2 4 4 8 8 10 10 10 10 9 8 10 11 11 12 12 11 12 12 12 12 12 13 11 12 11 11 10 10 10
4 5 4 4 4 6 2 3 6 5 1 4 4 5 5 6 7 5 10 12 12 12 7 13 12 13 15 17 15 10 11 12 12 10 9 11 11 11 10 10 11 10 12
4 2 4 4 2 4 5 1 6 8 6 5 6 6 12 3 0 4 10 13 13 12 12 14 14 14 17 11 19 14 9 12 11 12 5 9 11 10 11 9 6 6 7
Wind_Direction
249 253 246 262 285 287 272 265 266 266 244 248 252 250 253 240 238 279 284 164 191 221 230 232 229 221 224 231 223 220 220 222 220 225 227 230 233 242 229 232 230 249 228
251 256 252 256 264 268 267 269 257 253 270 252 246 251 271 248 253 239 269 260 187 212 227 233 232 225 231 234 224 217 222 229 223 222 225 226 231 233 235 237 233 231 231
248 267 288 275 270 267 265 259 252 238 235 273 269 271 208 178 243 257 258 289 283 211 215 231 230 233 232 233 223 221 222 229 233 226 227 225 226 231 236 238 235 237 231
265 265 260 257 274 252 268 259 274 283 254 240 257 267 275 214 253 231 250 228 249 276 203 211 226 229 227 225 223 221 224 231 231 226 230 230 228 228 230 236 237 233 234
298 292 271 265 267 261 266 267 244 247 265 264 258 257 234 215 246 245 257 232 234 250 262 182 209 229 229 228 221 215 219 233 227 227 223 227 229 230 230 230 234 235 231
224 263 268 273 260 257 241 251 257 254 255 256 249 253 248 218 222 233 241 240 224 263 242 243 203 218 227 221 219 199 217 229 226 225 222 222 225 227 228 228 230 235 232
231 240 242 254 250 261 267 267 264 271 271 279 288 269 275 226 217 228 248 250 241 246 280 228 240 233 195 210 220 219 218 224 225 225 227 225 224 225 224 227 227 226 227
237 245 256 264 259 250 262 262 270 275 274 285 266 299 283 267 227 240 250 237 255 233 238 233 253 213 252 184 206 217 225 222 224 226 226 229 225 224 223 222 223 226 224
220 239 254 260 273 268 257 265 252 260 279 316 263 251 287 274 325 240 221 236 229 212 212 215 245 233 262 234 219 190 211 230 233 243 241 233 231 226 225 224 223 224 223
199 234 250 252 259 262 280 267 263 253 241 252 242 235 242 270 285 304 343 318 263 246 212 208 228 218 216 255 202 47 152 178 233 264 262 251 236 229 228 226 226 224 226
164 148 279 281 278 266 260 268 264 235 238 254 256 267 295 242 207 235 274 296 317 243 250 235 190 208 213 236 264 180 157 184 200 221 257 273 270 248 239 232 228 224 225
290 83 13 317 275 282 275 270 267 259 241 244 260 259 242 268 248 222 252 283 212 251 252 285 233 193 227 182 237 103 156 185 198 206 229 260 259 249 246 253 252 235 228
251 300 324 305 305 311 295 284 275 270 260 241 238 272 266 267 248 232 262 279 240 255 148 224 290 231 157 169 145 164 165 200 203 212 257 267 265 253 244 248 256 261 247
337 350 336 323 295 276 267 267 292 274 301 266 260 242 260 282 263 235 229 228 259 248 228 147 9 330 206 147 151 150 155 183 205 246 261 263 258 251 252 257 253 253 259
32 27 17 15 23 23 5 354 32 357 341 317 336 299 278 293 302 260 245 266 240 210 192 55 59 310 159 102 72 158 174 155 192 222 241 253 271 282 267 263 260 253 254
36 36 41 55 63 42 48 28 59 43 330 323 307 304 318 344 82 93 17 284 237 268 146 36 68 236 195 164 156 257 120 193 202 206 232 269 278 273 274 268 261 259 254
67 64 52 47 47 63 62 64 70 28 4 10 0 12 25 14 26 14 21 24 11 351 263 132 173 151 295 258 183 225 238 256 230 193 199 238 269 269 269 268 271 259 249
89 83 68 70 69 54 56 64 55 58 50 37 41 50 52 57 54 40 33 25 18 16 336 306 232 214 243 9 334 309 307 313 317 178 196 223 254 266 265 263 269 271 257
81 92 92 71 58 62 66 67 66 54 54 46 37 41 43 53 67 65 59 56 33 10 16 355 349 347 275 249 267 259 244 260 268 285 222 231 238 243 243 248 261 269 261
112 95 81 79 76 67 57 49 54 52 55 66 58 57 56 49 46 49 70 76 105 110 103 73 316 313 311 334 306 287 268 227 258 268 286 288 271 236 225 237 248 251 251
96 119 120 98 91 65 38 39 56 50 60 60 56 80 67 68 59 35 1 12 351 334 318 239 196 221 209 255 263 290 288 283 276 276 275 269 263 230 231 225 253 218 214
113 101 72 70 43 60 45 34 35 78 76 67 72 82 128 96 101 107 49 347 333 328 314 311 301 305 297 270 245 280 290 287 288 290 279 271 280 282 282 276 285 134 202
108 87 74 72 77 93 74 55 342 73 68 51 22 358 302 73 338 354 347 302 278 223 243 289 288 290 299 292 298 285 267 280 277 286 292 276 275 269 268 268 246 220 217
124 96 96 95 109 102 119 93 315 327 40 349 324 320 330 341 46 346 327 320 318 310 299 297 304 301 299 307 296 280 282 276 263 261 250 263 266 264 265 262 236 215 225
140 141 146 136 130 120 91 250 286 303 336 282 293 293 327 318 63 340 317 319 312 305 289 207 230 251 254 260 261 279 269 268 270 264 268 266 267 271 267 273 273 221 223
131 144 190 166 90 126 98 320 244 290 298 287 271 241 189 294 253 292 317 313 305 308 323 311 298 269 233 261 230 238 267 274 273 276 285 268 264 263 268 264 250 268 235